This is the latest recevied weather packets stored in our database for station/object KE4EST. If no packets are shown the sender has not sent any weather packets the latest 10 day(s).
| Time | Temp. | Humidity | Pressure | Rain* | Wind** | Luminosity | Snow |
|---|---|---|---|---|---|---|---|
| 1777540004 | 12.78° C | 99% | 1012.9 hPa | 0 mm | - | 0 W/m² | - |
| 1777539700 | 12.78° C | 99% | 1013 hPa | 1.27 mm | - | 0 W/m² | - |
| 1777539396 | 12.78° C | 98% | 1012.4 hPa | 1.27 mm | - | 0 W/m² | - |
| 1777539092 | 13.33° C | 98% | 1012.8 hPa | 1.78 mm | - | 0 W/m² | - |
| 1777538789 | 13.33° C | 97% | 1012.4 hPa | 3.05 mm | - | 0 W/m² | - |
| 1777538484 | 13.33° C | 96% | 1012.8 hPa | 1.27 mm | - | 0 W/m² | - |
| 1777538180 | 13.89° C | 94% | 1012.5 hPa | 0 mm | - | 0 W/m² | - |
| 1777537876 | 13.33° C | 93% | 1012.1 hPa | 0 mm | - | 0 W/m² | - |
| 1777537572 | 13.33° C | 94% | 1012.2 hPa | 0 mm | - | 0 W/m² | - |
| 1777537268 | 13.33° C | 95% | 1011.9 hPa | 0 mm | - | 0 W/m² | - |
| 1777536964 | 13.33° C | 97% | 1011.4 hPa | 0 mm | - | 0 W/m² | - |
| 1777536662 | 13.33° C | 97% | 1011.5 hPa | 0 mm | - | 0 W/m² | - |
| 1777536359 | 13.33° C | 97% | 1011.4 hPa | 0 mm | - | 0 W/m² | - |
| 1777536055 | 13.33° C | 97% | 1011.4 hPa | 0 mm | - | 0 W/m² | - |
| 1777535751 | 13.33° C | 97% | 1011.3 hPa | 0 mm | - | 0 W/m² | - |
| 1777535448 | 13.33° C | 98% | 1011 hPa | 0 mm | - | 0 W/m² | - |
| 1777535145 | 13.33° C | 98% | 1011 hPa | 0 mm | - | 0 W/m² | - |
| 1777534841 | 13.33° C | 98% | 1011 hPa | 0 mm | - | 0 W/m² | - |
| 1777534538 | 13.33° C | 98% | 1011.3 hPa | 0 mm | - | 0 W/m² | - |
| 1777534236 | 13.33° C | 98% | 1011.3 hPa | 0 mm | - | 0 W/m² | - |
| 1777533934 | 13.33° C | 98% | 1011.1 hPa | 0 mm | - | 0 W/m² | - |
| 1777533631 | 13.33° C | 98% | 1011 hPa | 0 mm | - | 0 W/m² | - |
| 1777533326 | 13.33° C | 98% | 1011.3 hPa | 0 mm | - | 0 W/m² | - |
| 1777533023 | 13.33° C | 98% | 1011.1 hPa | 0 mm | - | 0 W/m² | - |
| 1777532721 | 13.33° C | 98% | 1011.1 hPa | 0 mm | - | 0 W/m² | - |
* Rain latest hour (hover to see other rain measurements)
** Current wind speed in m/s (hover to see current wind gust speed)